Regional Weather Roundup
Issued by NWS

Home | Current Version | Previous Version | Text Only | Print | Product List | Glossary On
Versions: 1 2 3 4 5 6 7 8 9 10 11 12 13 14 15 16 17 18 19 20 21 22 23 24 25 26 27 28 29 30 31 32 33 34 35 36 37 38 39 40 41 42 43 44 45 46 47 48 49 50
000
ASUS43 KLSX 070107
RWRMO

WEATHER SUMMARY FOR MISSOURI
NATIONAL WEATHER SERVICE SPRINGFIELD MO
700 PM CST FRI MAR 06 2015

NOTE: "FAIR" INDICATES FEW OR NO CLOUDS BELOW 12,000 FEET WITH NO
       SIGNIFICANT WEATHER AND/OR OBSTRUCTIONS TO VISIBILITY.
       CURRENT SKY AND/OR WEATHER CONDITIONS ARE NOT AVAILABLE FOR
       CHILLICOTHE AND FARMINGTON.

MOZ001>031-035>038-043-044-053-054-070200-
...NORTHERN AND WESTERN MISSOURI...

CITY           SKY/WX    TMP DP  RH WIND       PRES   REMARKS
KANSAS CTY INT PTCLDY    49  19  30 S8        30.20S
KANSAS C DTWN  CLEAR     54  24  31 SW6       30.20S
LEE`S SUMMIT   CLEAR     50  28  42 S8        30.22S
ST JOSEPH      CLEAR     42  21  43 S7        30.18S
CHILLICOTHE      N/A     44  24  45 S5        30.21R
KIRKSVILLE     CLEAR     44  26  49 SW9       30.19S

$$
MOZ066>068-077>081-088>096-101>105-070200-
...SOUTHWEST MISSOURI...

CITY           SKY/WX    TMP DP  RH WIND       PRES   REMARKS
SPRINGFIELD    CLEAR     39  25  57 S9        30.32R
JOPLIN         CLEAR     46  26  45 S12       30.33R

$$
MOZ032>034-039>042-045>050-055>058-069>072-070200-
...CENTRAL MISSOURI...

CITY           SKY/WX    TMP DP  RH WIND       PRES   REMARKS
COLUMBIA       CLEAR     45  29  53 W9        30.26R
JEFFERSON CITY CLEAR     50  26  39 W6        30.27R
ROLLA          CLEAR     43  27  53 SW12      30.27R
SEDALIA        CLEAR     47  29  49 SW9       30.27R
WHITEMAN AFB   CLEAR     39  29  67 SW10      30.24R
WARRENSBURG    CLEAR     45  30  57 S8        30.25R
OSAGE BEACH    CLEAR     50  25  37 SW8       30.29S

$$
MOZ051-052-059>065-070200-
...EAST CENTRAL MISSOURI...

CITY           SKY/WX    TMP DP  RH WIND       PRES   REMARKS
ST LOUIS INTL  PTCLDY    46  23  40 S8        30.27R
SPIRIT OF STL  CLEAR     44  23  43 SW7       30.27R
ST CHARLES     CLEAR     33  27  78 E10       30.27R WCI  25

$$
MOZ072>076-082>087-097>100-106>115-070200-
...SOUTH CENTRAL AND SOUTHEAST MISSOURI...

CITY           SKY/WX    TMP DP  RH WIND       PRES   REMARKS
CAPE GIRARDEAU CLEAR     22  14  71 S8        30.44S WCI  12
FARMINGTON     CLEAR     34  19  55 S12       30.36R WCI  25
POPLAR BLUFF   CLEAR     29  16  58 S7        30.43S WCI  22
WEST PLAINS    CLEAR     40  23  50 S5        30.36R

$$


USA.gov is the U.S. government's official web portal to all federal, state and local government web resources and services.